Regional Weather Roundup
Issued by NWS

Home | Current Version | Previous Version | Text Only | Print | Product List | Glossary Off
Versions: 1 2 3 4 5 6 7 8 9 10 11 12 13 14 15 16 17 18 19 20 21 22 23 24 25 26 27 28 29 30 31 32 33 34 35 36 37 38 39 40 41 42 43 44 45 46 47 48 49 50

000
ASUS43 KDTX 231101
RWRMI
MICHIGAN HOURLY REGIONAL WEATHER ROUNDUP
NATIONAL WEATHER SERVICE DETROIT/PONTIAC MI
600 AM EST THU NOV 23 2017

NOTE: "FAIR" INDICATES FEW OR NO CLOUDS BELOW 12,000 FEET WITH NO
SIGNIFICANT WEATHER AND/OR OBSTRUCTION TO VISIBILITY.

MIZ047>049-052>055-059>063-066>070-074>076-081>083-231200-
SOUTHEAST LOWER MICHIGAN

CITY           SKY/WX    TMP DP  RH WIND       PRES   REMARKS
ADRIAN         PTCLDY    28  23  81 SW8       30.11F WCI  20
ALMA           CLOUDY    32  24  72 S8        30.05F WCI  25
ANN ARBOR      PTCLDY    26  23  88 S5        30.09F WCI  20
BAD AXE        CLOUDY    30  21  68 SW7       30.05F WCI  23
CARO           CLOUDY    30  22  70 S5        30.05F WCI  25
DETROIT CITY   MOCLDY    30  21  69 SW7       30.11F WCI  23
DETROIT        CLOUDY    29  23  78 S6        30.12F WCI  23
FLINT          CLOUDY    30  21  69 SW9       30.07F WCI  22
GROSSE ILE     PTCLDY    31  23  71 SW8       30.10F WCI  24
HILLSDALE      CLOUDY    28  21  74 SW5       30.07F WCI  23
HOWELL         CLOUDY    29  23  78 S5        30.07F WCI  24

CITY           SKY/WX    TMP DP  RH WIND       PRES   REMARKS
JACKSON        CLOUDY    30  20  66 S9        30.07F WCI  22
LAMBERTVILLE   CLOUDY    32  24  72 S6        30.12F WCI  26
LANSING        MOCLDY    29  21  72 S10       30.07F WCI  20
LAPEER         CLOUDY    30  22  70 S7        30.07F WCI  23
MASON          CLOUDY    30  22  70 SW5       30.07F WCI  26
MONROE         CLOUDY    31  23  72 S6        30.11F WCI  26
MT. CLEMENS    CLOUDY    29  24  78 S6        30.08F WCI  23
PONTIAC        MOCLDY    28  21  75 S7        30.06F WCI  21
PORT HOPE        N/A     31  20  63 SW8G17    30.03F WCI  23
PORT HURON     MOCLDY    28  19  69 SW3       30.10F
TRI CITIES     CLOUDY    31  24  75 SW8       30.06F WCI  23
MIDLAND        CLOUDY    32  24  72 S8        30.04S WCI  25
TROY           PTCLDY    31  22  68 S5        30.11F WCI  27
SAGINAW HB     CLOUDY    32  23  69 SW10      30.05F WCI  24
$$
MIZ043>046-050>051-056>058-064>065-071>073-077>080-231200-
SOUTHWEST LOWER MICHIGAN

CITY           SKY/WX    TMP DP  RH WIND       PRES   REMARKS
BATTLE CREEK   CLOUDY    30  19  63 SW9       30.07F WCI  22
BENTON HARBOR  CLOUDY    32  18  56 S8        30.07F WCI  25
BIG RAPIDS     CLOUDY    31  24  77 CALM      30.01S
COLDWATER      CLOUDY    30  20  67 SW5       30.08F WCI  25
FREMONT        CLOUDY    34  24  67 SW5       30.02S WCI  29
HOLLAND        CLOUDY    33  23  66 S8        30.05F WCI  26
GRAND RAPIDS   CLOUDY    32  23  69 SW10      30.05S WCI  24
IONIA          CLOUDY    31  22  69 S8        30.04F WCI  24
KALAMAZOO      CLOUDY    30  17  58 SW9       30.07F WCI  22
LUDINGTON      CLOUDY    35  23  61 W8        30.01F WCI  29
MARSHALL       CLOUDY    30  18  60 SW9       30.07F WCI  21
MOUNT PLEASANT CLOUDY    32  24  70 S7        30.03S WCI  26
MUSKEGON       CLOUDY    38  22  52 SW12      30.04S WCI  30
SOUTH HAVEN    CLOUDY    33  20  59 SW8       30.06F WCI  26
$$
MIZ016>042-231200-
NORTHERN LOWER MICHIGAN

CITY           SKY/WX    TMP DP  RH WIND       PRES   REMARKS
ALPENA         CLOUDY    28  22  78 S7        29.99F WCI  21
BEAVER ISLAND  CLOUDY    34  28  77 W17G24    29.94S WCI  23
BELLAIRE       CLOUDY    32  28  85 S5        29.98F WCI  28
CADILLAC       CLOUDY    28  26  90 SW6       29.98S WCI  22
CHARLEVOIX     CLOUDY    35  28  75 SW12G20   29.98F WCI  26
FRANKFORT      CLOUDY    35  28  75 W5        30.00F WCI  31
GAYLORD        CLOUDY    27  21  78 SW10      29.94F WCI  17
GRAYLING       CLOUDY    29  22  76 SW3       29.98S
HARBOR SPRINGS CLOUDY    32  27  80 SW8       29.94S WCI  25
HOUGHTON LAKE  CLOUDY    29  23  78 SW8       29.99F WCI  21
MANISTEE       CLOUDY    35  22  58 W8        30.01S WCI  29
OSCODA         CLOUDY    31  22  69 SW9       30.01F WCI  23
PELLSTON       CLOUDY    32  26  78 SW7       29.94F WCI  26
ROGERS CITY    CLOUDY    28  22  77 S8        29.97F WCI  20
TRAVERSE CITY  CLOUDY    33  26  75 SW9       29.99S WCI  25
$$
MIZ007>008-015-231200-
EASTERN UPPER MICHIGAN

CITY           SKY/WX    TMP DP  RH WIND       PRES   REMARKS
KINROSS        FLURRIES  28  23  81 W3        29.92S
MACKINAC ISLAN CLOUDY    35  24  63 W13G28    29.92S WCI  27
NEWBERRY       CLOUDY    26  19  76 SW6       29.91F WCI  19
S. S. MARIE    MIX PCPN  30  20  66 W13       29.91S WCI  20
MUNISING         N/A     28  19  69 SW5       29.92F WCI  23
$$
MIZ004>006-011>014-085-231200-
CENTRAL UPPER MICHIGAN

CITY           SKY/WX    TMP DP  RH WIND       PRES   REMARKS
MANISTIQUE     CLOUDY    28  15  58 SW3       29.94F
ESCANABA       CLOUDY   N/A N/A N/A SW5       29.95F
MENOMINEE      CLOUDY    29  22  75 SW6       29.97F WCI  23
SAWYER-GWINN   CLOUDY    26  19  76 SW7       29.90F WCI  18
$$
MIZ001>003-009>011-084-231200-
WESTERN UPPER MICHIGAN

CITY           SKY/WX    TMP DP  RH WIND       PRES   REMARKS
IRON MOUNTAIN  CLOUDY    27  18  69 SW3       29.90F
HOUGHTON       CLOUDY    28  21  75 W10       29.84F WCI  19
COPPER HARBOR    N/A     32  26  78 NW12G21   29.85F WCI  23
IRONWOOD       CLOUDY    24  18  77 SW6       29.89F WCI  17
$$

ABBREVIATIONS USED IN REMARKS
   TC - TEMPERATURE IN CELSIUS
  WCI - WIND CHILL INDEX
   HX - HEAT INDEX
  VSB - VISIBILITY





USA.gov is the U.S. government's official web portal to all federal, state and local government web resources and services.